Regional Weather Roundup
Issued by NWS

Home | Current Version | Previous Version | Graphics & Text | Print | Product List | Glossary On
Versions: 1 2 3 4 5 6 7 8 9 10 11 12 13 14 15 16 17 18 19 20 21 22 23 24 25 26 27 28 29 30 31 32 33 34 35 36 37 38 39 40 41 42 43 44 45 46 47 48 49 50
000
ASUS43 KFSD 250402
RWRSD

WEATHER ROUNDUP FOR SOUTH DAKOTA
NATIONAL WEATHER SERVICE SIOUX FALLS SD
1100 PM CDT FRI APR 24 2015

NOTE: "FAIR" INDICATES FEW OR NO CLOUDS BELOW 12,000 FEET WITH NO
SIGNIFICANT WEATHER AND/OR OBSTRUCTIONS TO VISIBILITY.


SDZ001>005-009-010-012>017-250500-
NORTHWEST AND NORTH CENTRAL SOUTH DAKOTA

CITY           SKY/WX    TMP DP  RH WIND       PRES   REMARKS
BUFFALO          N/A     51  33  50 E13       29.58S
FAITH            N/A     49  35  58 NE8       29.63R
MOBRIDGE       CLEAR     52  45  77 E22G30    29.61R
$$

SDZ012>016-024>037-041>051-057-063-072>074-250500-
SOUTHWEST AND SOUTH CENTRAL SOUTH DAKOTA

CITY           SKY/WX    TMP DP  RH WIND       PRES   REMARKS
RAPID CTY ARPT MOCLDY    46  42  86 NW9       29.62R
PIERRE         PTCLDY    54  44  69 NE18      29.54R
CUSTER         PTCLDY    42  38  85 NE6       29.68S
ELLSWORTH AFB  MOCLDY    49  44  82 W6        29.62S
PHILIP         CLOUDY    53  44  71 NW10      29.58S
PINE RIDGE     CLOUDY    50  45  83 SW5       29.58F
WINNER         FAIR      61  47  59 W6        29.50R
$$

SDZ004>011-016>023-039-040-250500-
NORTHEAST SOUTH DAKOTA

CITY           SKY/WX    TMP DP  RH WIND       PRES   REMARKS
ABERDEEN       MOCLDY    48  43  82 E12       29.68R
WATERTOWN      CLOUDY    46  42  86 E9G18     29.66R
BROOKINGS      CLOUDY    50  46  87 NE16G23   29.67R
SISSETON         N/A     45  43  93 SE18      29.71R
$$

SDZ017-020-022-023-036>040-048>070-250500-
SOUTHEAST SOUTH DAKOTA

CITY           SKY/WX    TMP DP  RH WIND       PRES   REMARKS
SIOUX FALLS    CLOUDY    53  48  83 SE18G29   29.60S
HURON          CLOUDY    53  47  79 E18G28    29.55R
MITCHELL       LGT RAIN  58  54  86 SE20      29.54F
YANKTON        MOCLDY    61  52  72 SE10      29.56R
$$

ABBREVIATIONS USED IN REMARKS
   TC - TEMPERATURE IN CELSIUS
  WCI - WIND CHILL INDEX
   HX - HEAT INDEX
  VSB - VISIBILITY




USA.gov is the U.S. government's official web portal to all federal, state and local government web resources and services.